Ephrata, WA
on Saturday, January 26, 2013

Saturday
Previous Day Next Day
Daily Summary
 ActualAverageRecord
Temperature
Mean Temperature °F / °C 30°F / -1°C  
Max Temperature 32°F / 0°C 37°F / 3°C 56°F / 13°C (2003)
Min Temperature 29°F / -2°C 24°F / -4°C -19°F / -28°C (1957)
Degree Days
Heating Degree Days 34 35  
Month to date heating degree days 1017 952  
Since 1 July heating degree days 3272 3538  
Cooling Degree Days 0 0  
Month to date cooling degree days 0 0  
Year to date cooling degree days 0 0  
Moisture
Dew Point 28°F / -2°C   
Average Humidity 93    
Maximum Humidity 100    
Minimum Humidity 85    
Precipitation
Precipitation T in / T cm 0.03 in / 0.76 cm 0.37 in / 0.94 cm (1969)
Month to date precipitation 0.18 0.79  
Year to date precipitation 0.18 0.79  
Wind
Wind Speed 5 mph / 7 km/h   
Max Wind Speed 28 mph / 45 km/h   
Max Gust Speed 32 mph / 52 km/h   
Visibility 8 miles / 12 kilometers   
Events Snow   

Key: T is trace of precipitation, MM is missing value
Source: NWS Daily Summary
Time(PST)TemperatureDew PointHumidity Pressure Visibility Wind DirectionWind SpeedGust SpeedPrecipitationEvents Conditions
12:37 AM 30.2°F / -1.0°C 26.6°F / -3.0°C 86% 29.95 in / 1014.1 hPa 10.0 miles / 16.1 kilometers West 8.1 mph / 13.0 km/h - N/A   Overcast
12:53 AM 30.9°F / -0.6°C 28.0°F / -2.2°C 89% 29.98 in / 1015.2 hPa 10.0 miles / 16.1 kilometers WNW 8.1 mph / 13.0 km/h - N/A   Overcast
1:53 AM 30.9°F / -0.6°C 28.0°F / -2.2°C 89% 29.97 in / 1014.9 hPa 10.0 miles / 16.1 kilometers West 4.6 mph / 7.4 km/h - N/A   Overcast
2:53 AM 30.9°F / -0.6°C 28.0°F / -2.2°C 89% 29.96 in / 1014.6 hPa 10.0 miles / 16.1 kilometers WNW 8.1 mph / 13.0 km/h - N/A   Overcast
3:53 AM 30.9°F / -0.6°C 27.0°F / -2.8°C 85% 29.95 in / 1014.2 hPa 10.0 miles / 16.1 kilometers NW 8.1 mph / 13.0 km/h - N/A   Overcast
4:53 AM 28.9°F / -1.7°C 27.0°F / -2.8°C 92% 29.96 in / 1014.6 hPa 10.0 miles / 16.1 kilometers SSW 5.8 mph / 9.3 km/h - N/A   Overcast
5:01 AM 28.4°F / -2.0°C 26.6°F / -3.0°C 93% 29.92 in / 1013.1 hPa 10.0 miles / 16.1 kilometers SSW 6.9 mph / 11.1 km/h - N/A   Overcast
5:53 AM 28.9°F / -1.7°C 27.0°F / -2.8°C 92% 29.96 in / 1014.6 hPa 10.0 miles / 16.1 kilometers SW 6.9 mph / 11.1 km/h - N/A   Overcast
6:53 AM 28.9°F / -1.7°C 27.0°F / -2.8°C 92% 29.96 in / 1014.5 hPa 8.0 miles / 12.9 kilometers SW 5.8 mph / 9.3 km/h - N/A   Overcast
7:53 AM 28.9°F / -1.7°C 27.0°F / -2.8°C 92% 29.97 in / 1014.8 hPa 6.0 miles / 9.7 kilometers SW 6.9 mph / 11.1 km/h - N/A   Overcast
8:53 AM 28.9°F / -1.7°C 28.0°F / -2.2°C 96% 29.97 in / 1014.9 hPa 3.0 miles / 4.8 kilometers SW 4.6 mph / 7.4 km/h - N/A   Overcast
9:14 AM 28.4°F / -2.0°C 28.4°F / -2.0°C 100% 29.94 in / 1013.8 hPa 2.5 miles / 4.0 kilometers SSW 5.8 mph / 9.3 km/h - N/A   Overcast
9:35 AM 30.2°F / -1.0°C 28.4°F / -2.0°C 93% 29.94 in / 1013.8 hPa 1.8 miles / 2.8 kilometers SW 5.8 mph / 9.3 km/h - 0.00 in / 0.0 cm Snow Light Snow
9:53 AM 30.0°F / -1.1°C 28.9°F / -1.7°C 96% 29.99 in / 1015.4 hPa 1.8 miles / 2.8 kilometers SW 4.6 mph / 7.4 km/h - 0.00 in / 0.0 cm Snow Light Snow
10:00 AM 30.2°F / -1.0°C 28.4°F / -2.0°C 93% 29.94 in / 1013.8 hPa 2.0 miles / 3.2 kilometers SSW 3.5 mph / 5.6 km/h - 0.00 in / 0.0 cm Snow Light Snow
10:08 AM 30.2°F / -1.0°C 28.4°F / -2.0°C 93% 29.94 in / 1013.8 hPa 1.5 miles / 2.4 kilometers SW 4.6 mph / 7.4 km/h - 0.00 in / 0.0 cm Snow Light Snow
10:25 AM 30.2°F / -1.0°C 28.4°F / -2.0°C 93% 29.94 in / 1013.8 hPa 2.0 miles / 3.2 kilometers Calm Calm - 0.00 in / 0.0 cm Snow Light Snow
10:35 AM 30.2°F / -1.0°C 28.4°F / -2.0°C 93% 29.94 in / 1013.8 hPa 2.5 miles / 4.0 kilometers WSW 3.5 mph / 5.6 km/h - 0.00 in / 0.0 cm Snow Light Snow
10:45 AM 30.2°F / -1.0°C 28.4°F / -2.0°C 93% 29.94 in / 1013.8 hPa 2.5 miles / 4.0 kilometers SSW 3.5 mph / 5.6 km/h - 0.00 in / 0.0 cm Snow Light Snow
10:53 AM 30.9°F / -0.6°C 28.0°F / -2.2°C 89% 29.98 in / 1015.1 hPa 2.0 miles / 3.2 kilometers Calm Calm - 0.00 in / 0.0 cm Snow Light Snow
11:06 AM 30.2°F / -1.0°C 28.4°F / -2.0°C 93% 29.94 in / 1013.8 hPa 4.0 miles / 6.4 kilometers SW 3.5 mph / 5.6 km/h - 0.00 in / 0.0 cm   Overcast
11:27 AM 30.2°F / -1.0°C 28.4°F / -2.0°C 93% 29.94 in / 1013.8 hPa 9.0 miles / 14.5 kilometers Calm Calm - 0.00 in / 0.0 cm   Overcast
11:53 AM 32.0°F / 0.0°C 28.0°F / -2.2°C 85% 29.97 in / 1014.8 hPa 10.0 miles / 16.1 kilometers Calm Calm - 0.00 in / 0.0 cm   Overcast
12:16 PM 30.2°F / -1.0°C 28.4°F / -2.0°C 93% 29.93 in / 1013.4 hPa 10.0 miles / 16.1 kilometers SSE 3.5 mph / 5.6 km/h - N/A   Overcast
12:53 PM 30.9°F / -0.6°C 28.0°F / -2.2°C 89% 29.96 in / 1014.5 hPa 10.0 miles / 16.1 kilometers Calm Calm - N/A   Overcast
1:48 PM 32.0°F / 0.0°C 26.6°F / -3.0°C 80% 29.91 in / 1012.8 hPa 10.0 miles / 16.1 kilometers Calm Calm - N/A   Overcast
1:53 PM 32.0°F / 0.0°C 28.0°F / -2.2°C 85% 29.95 in / 1014.0 hPa 10.0 miles / 16.1 kilometers SSW 26.5 mph / 42.6 km/h 29.9 mph / 48.2 km/h N/A   Overcast
2:02 PM 32.0°F / 0.0°C 28.4°F / -2.0°C 87% 29.91 in / 1012.8 hPa 10.0 miles / 16.1 kilometers ESE 3.5 mph / 5.6 km/h 32.2 mph / 51.9 km/h N/A   Overcast
2:53 PM 30.9°F / -0.6°C 28.0°F / -2.2°C 89% 29.96 in / 1014.4 hPa 10.0 miles / 16.1 kilometers ESE 4.6 mph / 7.4 km/h - N/A   Overcast
3:53 PM 30.9°F / -0.6°C 28.0°F / -2.2°C 89% 29.96 in / 1014.4 hPa 10.0 miles / 16.1 kilometers SE 4.6 mph / 7.4 km/h - N/A   Overcast
4:53 PM 30.9°F / -0.6°C 28.0°F / -2.2°C 89% 29.96 in / 1014.6 hPa 10.0 miles / 16.1 kilometers Calm Calm - N/A   Overcast
5:53 PM 30.9°F / -0.6°C 28.0°F / -2.2°C 89% 29.98 in / 1015.0 hPa 10.0 miles / 16.1 kilometers Calm Calm - N/A   Overcast
6:53 PM 30.9°F / -0.6°C 28.0°F / -2.2°C 89% 29.98 in / 1015.2 hPa 10.0 miles / 16.1 kilometers East 3.5 mph / 5.6 km/h - N/A   Overcast
7:53 PM 30.0°F / -1.1°C 28.0°F / -2.2°C 92% 29.99 in / 1015.4 hPa 10.0 miles / 16.1 kilometers Calm Calm - N/A   Overcast
8:53 PM 30.0°F / -1.1°C 28.0°F / -2.2°C 92% 29.99 in / 1015.6 hPa 10.0 miles / 16.1 kilometers SSE 3.5 mph / 5.6 km/h - N/A   Overcast
9:53 PM 30.0°F / -1.1°C 27.0°F / -2.8°C 88% 30.01 in / 1016.0 hPa 10.0 miles / 16.1 kilometers Calm Calm - N/A   Overcast
10:53 PM 30.0°F / -1.1°C 28.0°F / -2.2°C 92% 30.01 in / 1016.3 hPa 10.0 miles / 16.1 kilometers Calm Calm - N/A   Overcast
11:53 PM 30.0°F / -1.1°C 27.0°F / -2.8°C 88% 30.02 in / 1016.5 hPa 10.0 miles / 16.1 kilometers South 4.6 mph / 7.4 km/h - N/A   Overcast
Moon Phase
Jan. 26 Jan. 26 Feb. 03 Feb. 10 Feb. 17
Sunrise:07:30 AM (PST) Moon Rise:04:54 PM (PST)1/26
Sunset:04:51 PM (PST) Moon Set:06:48 AM (PST)1/26

Copyright © 2014 The Weather Underground, Inc.